Вернуться в каталог

COSMOS 1275 DEB

АктивенPO
NORAD 14504·DEBRIS·🇷🇺 Russia

Запущен Jun 4, 1981 с Plesetsk Cosmodrome

Loading…

Ближайшие Пролёты (ближайшие 24 часа)

TLE

СвежийSource: Space-Track

Эпоха: Sep 14, 2026, 08:50 UTC

1 14504U 81053JJ  26257.36813839  .00000814  00000-0  46801-3 0  9999
2 14504  83.1858 266.9861 0021151 147.1589 278.2260 14.08023945295034

Отслеживайте COSMOS 1275 DEB в реальном времени с AllMySat

Download on the App Store